Regional Weather Roundup
Issued by NWS Sioux Falls, SD

Home | Current Version | Previous Version | Graphics & Text | Print | Product List | Glossary Off
Versions: 1 2 3 4 5 6 7 8 9 10 11 12 13 14 15 16 17 18 19 20 21 22 23 24 25 26 27 28 29 30 31 32 33 34 35 36 37 38 39 40 41 42 43 44 45 46 47 48 49 50

000
ASUS43 KFSD 050202
RWRFSD

WEATHER ROUNDUP FOR SE SOUTH DAKOTA/SW MINNESOTA/NW IOWA
NATIONAL WEATHER SERVICE SIOUX FALLS SD
900 PM CDT WED MAY 04 2016

NOTE: "FAIR" INDICATES FEW OR NO CLOUDS BELOW 12,000 FEET WITH NO
SIGNIFICANT WEATHER AND OR OBSTRUCTIONS TO VISIBILITY.


SDZ038>040-050-052>070-050300-
SOUTHEAST SOUTH DAKOTA

CITY           SKY/WX    TMP DP  RH WIND       PRES   REMARKS
BROOKINGS      CLEAR     59  30  33 N6        30.00
CHAMBERLAIN    NOT AVBL
HURON          CLEAR     59  40  49 CALM      30.00S
MADISON        FAIR      55  36  47 N7        30.01S
MITCHELL       CLEAR     65  37  35 CALM      30.01S
SIOUX FALLS    PTCLDY    57  33  40 NW5       30.00R
WINNER         FAIR      61  42  49 SE7       30.04S
YANKTON        CLEAR     57  37  47 NW7       30.01S
$$

MNZ071-072-080-081-089-090-097-098-050300-
SOUTHWEST MINNESOTA

CITY           SKY/WX    TMP DP  RH WIND       PRES   REMARKS
FAIRMONT       CLEAR     61  28  29 N8        29.96R
JACKSON        CLEAR     55  32  41 NW8       29.98S
LUVERNE        CLEAR     59  32  36 N3        30.00R
MARSHALL       CLEAR     60  30  32 N6        29.99R
MONTEVIDEO     CLEAR     59  30  33 NE7       30.00R
PIPESTONE      CLEAR     59  27  29 N3        30.00S
REDWOOD FALLS  CLEAR     61  28  28 N6        29.97S
TRACY          CLEAR     59  32  35 N5        29.99S
WINDOM         CLEAR     54  34  47 CALM      29.98R
WORTHINGTON    CLEAR     55  37  50 NW7       30.00R
$$

IAZ001>003-012>014-020>022-031-032-NEZ013-014-SDZ071-050300-
NORTHWEST IOWA

CITY           SKY/WX    TMP DP  RH WIND       PRES   REMARKS
DENISON        CLEAR     59  37  44 NW3       29.96S
ESTHERVILLE    CLEAR     53  38  56 N8        29.96R
SIOUX CITY     CLEAR     56  41  57 NW7       30.00R
SPENCER        CLEAR     55  37  50 NW7       29.98R
STORM LAKE     CLEAR     55  37  50 N9        29.98S
$$

ABBREVIATIONS USED IN REMARKS
   TC - TEMPERATURE IN CELSIUS
  WCI - WIND CHILL INDEX
   HX - HEAT INDEX
  VSB - VISIBILITY





USA.gov is the U.S. government's official web portal to all federal, state and local government web resources and services.